Tracking 35275 objects as of 9-Sep-2026
HD Live streaming from Space Station
objects crossing your sky now

SL-8 DEB


SL-8 DEB is no longer on orbit


NORAD ID: 1349
Int'l Code: 1965-020U
Launch date: March 15, 1965
Source: Commonwealth of Independent States (former USSR) (CIS)
Launch site: TYURATAM MISSILE AND SPACE COMPLEX (TTMTR)
Decay date: 1979-04-09

Note: This is SATELLITE DEBRIS
Your satellite tracking list
Your tracking list is empty




NASA's NSSDC Master Catalog

Two Line Element Set (TLE):
1 01349U 65020  U 79083.15942029  .00698251 +00000-0 +00000-0 0  9990
2 01349 056.0582 006.7618 0088752 274.3179 084.7697 15.71604878718617
Source of the keplerian elements: AFSPC